Weather History for Hutchinson, MN

Change the Weather History Date:

Saturday, May 11, 2013

  Actual Average Record
Temperature  
Mean Temperature 48 °F -  
Max Temperature 53 °F 70 °F 95 °F (1987)
Min Temperature 40 °F 46 °F 31 °F (1981)
Degree Days  
Heating Degree Days 18    
Moisture  
Dew Point 27 °F    
Average Humidity 47    
Maximum Humidity 73    
Minimum Humidity 29    
Precipitation  
Precipitation 0.00 in - - ()
Sea Level Pressure  
Sea Level Pressure 30.13 in    
Wind  
Wind Speed 21 mph (NW)    
Max Wind Speed 31 mph    
Max Gust Speed 40 mph    
Visibility 10 miles    
Events      
Averages and records for this station are not official NWS values.
T = Trace of Precipitation, MM = Missing Value Source: NWS Daily Summary

Daily Weather History Graph

Daily Weather History Graph

Search for Another Location

Airport:

Trip Planner

Search our weather history database for the weather conditions in past years. The results will help you decide how hot, cold, wet, or windy it might be!

Date:

Astronomy

May. 11, 2013 Rise Set
Actual Time 5:53 AM CDT 8:35 PM CDT
Civil Twilight 5:19 AM CDT 9:08 PM CDT
Nautical Twilight 4:37 AM CDT 9:51 PM CDT
Astronomical Twilight 3:48 AM CDT 10:40 PM CDT
Moon 7:00 AM CDT (5/11) 10:17 PM CDT (5/11)
Length of Visible Light 15h 49m
Length of Day
14h 41m
Waxing Crescent, 3% of the Moon is Illuminated
May 11
Waxing Crescent
May 17
First Quarter
May 24
Full
May 31
Last Quarter
Jun 8
New

Hourly Weather History & Observations

Time (CDT) Temp. Windchill Dew Point Humidity Pressure Visibility Wind Dir Wind Speed Gust Speed Precip Events Conditions
12:05 AM 55.4 °F - 41.0 °F 58% 29.94 in 10.0 mi NNW 26.5 mph 34.5 mph N/A   Clear
12:25 AM 55.4 °F - 39.2 °F 54% 29.95 in 10.0 mi NNW 27.6 mph 39.1 mph N/A   Clear
12:45 AM 53.6 °F - 39.2 °F 58% 29.97 in 10.0 mi NNW 23.0 mph 32.2 mph N/A   Clear
1:05 AM 51.8 °F - 39.2 °F 62% 29.99 in 10.0 mi NNW 21.9 mph 33.4 mph N/A   Clear
1:25 AM 51.8 °F - 39.2 °F 62% 30.00 in 10.0 mi NNW 19.6 mph 29.9 mph N/A   Clear
1:49 AM 50.0 °F - 37.8 °F 63% 30.01 in 10.0 mi NNW 25.3 mph 31.1 mph N/A   Clear
1:54 AM 50.0 °F - 37.6 °F 62% 30.02 in 10.0 mi NNW 23.0 mph 29.9 mph N/A   Clear
2:13 AM 48.9 °F - 37.6 °F 65% 30.03 in 10.0 mi NNW 17.3 mph 27.6 mph N/A   Clear
2:34 AM 47.1 °F - 37.9 °F 70% 30.03 in 10.0 mi NW 10.4 mph 17.3 mph N/A   Clear
2:54 AM 46.6 °F - 37.8 °F 71% 30.04 in 10.0 mi NW 16.1 mph 20.7 mph N/A   Clear
3:14 AM 46.2 °F 40.5 °F 37.0 °F 70% 30.04 in 10.0 mi WNW 12.7 mph 21.9 mph N/A   Clear
3:34 AM 44.6 °F 37.8 °F 36.5 °F 73% 30.05 in 10.0 mi NW 15.0 mph - N/A   Clear
3:54 AM 44.6 °F 37.8 °F 34.9 °F 69% 30.06 in 10.0 mi NW 15.0 mph 21.9 mph N/A   Clear
4:14 AM 43.7 °F 36.0 °F 32.7 °F 65% 30.07 in 10.0 mi NW 17.3 mph 24.2 mph N/A   Clear
4:33 AM 43.2 °F 35.9 °F 30.6 °F 61% 30.08 in 10.0 mi NW 15.0 mph 25.3 mph N/A   Clear
4:54 AM 42.4 °F 34.4 °F 31.8 °F 66% 30.08 in 10.0 mi NW 17.3 mph 21.9 mph N/A   Clear
5:14 AM 41.9 °F 34.0 °F 32.0 °F 68% 30.09 in 10.0 mi NW 16.1 mph 21.9 mph N/A   Clear
5:34 AM 40.8 °F 34.5 °F 32.0 °F 71% 30.10 in 10.0 mi NW 10.4 mph - N/A   Clear
5:54 AM 40.5 °F 31.2 °F 31.1 °F 69% 30.10 in 10.0 mi NW 19.6 mph 24.2 mph N/A   Clear
6:14 AM 40.3 °F 32.6 °F 30.9 °F 69% 30.11 in 10.0 mi NW 13.8 mph - N/A   Clear
6:34 AM 40.6 °F 32.7 °F 30.7 °F 68% 30.12 in 10.0 mi NW 15.0 mph - N/A   Clear
6:54 AM 41.5 °F 33.8 °F 30.4 °F 65% 30.12 in 10.0 mi NW 15.0 mph 23.0 mph N/A   Clear
7:14 AM 42.4 °F 33.8 °F 28.9 °F 59% 30.13 in 10.0 mi NNW 19.6 mph 26.5 mph N/A   Clear
7:34 AM 43.0 °F 34.5 °F 29.1 °F 58% 30.14 in 10.0 mi NW 19.6 mph 26.5 mph N/A   Clear
7:54 AM 42.6 °F 33.8 °F 30.4 °F 62% 30.13 in 10.0 mi NW 20.7 mph 27.6 mph N/A   Scattered Clouds
8:14 AM 43.2 °F 34.0 °F 31.1 °F 62% 30.14 in 10.0 mi NW 23.0 mph 29.9 mph N/A   Scattered Clouds
8:33 AM 44.8 °F 36.2 °F 31.8 °F 60% 30.14 in 10.0 mi NNW 23.0 mph 28.8 mph N/A   Scattered Clouds
8:54 AM 45.3 °F 36.1 °F 31.1 °F 58% 30.14 in 10.0 mi NW 27.6 mph 33.4 mph N/A   Scattered Clouds
9:14 AM 45.0 °F 36.2 °F 29.7 °F 55% 30.14 in 10.0 mi NW 24.2 mph 35.7 mph N/A   Mostly Cloudy
9:34 AM 46.2 °F 37.3 °F 29.3 °F 52% 30.15 in 10.0 mi NW 27.6 mph 33.4 mph N/A   Scattered Clouds
9:53 AM 46.6 °F - 28.2 °F 49% 30.15 in 10.0 mi NNW 27.6 mph 33.4 mph N/A   Clear
10:14 AM 46.8 °F - 26.4 °F 45% 30.15 in 10.0 mi NW 26.5 mph 36.8 mph N/A   Scattered Clouds
10:34 AM 45.9 °F 37.8 °F 26.6 °F 47% 30.16 in 10.0 mi NW 21.9 mph 34.5 mph N/A   Mostly Cloudy
10:54 AM 48.0 °F - 23.5 °F 38% 30.16 in 10.0 mi NW 28.8 mph 36.8 mph N/A   Scattered Clouds
11:14 AM 48.7 °F - 22.5 °F 36% 30.16 in 10.0 mi NNW 29.9 mph 36.8 mph N/A   Scattered Clouds
11:33 AM 49.5 °F - 21.7 °F 34% 30.16 in 10.0 mi NW 31.1 mph 36.8 mph N/A   Scattered Clouds
11:54 AM 48.6 °F - 19.0 °F 31% 30.16 in 10.0 mi NNW 29.9 mph 39.1 mph N/A   Scattered Clouds
12:14 PM 49.1 °F - 19.8 °F 31% 30.16 in 10.0 mi NW 25.3 mph 34.5 mph N/A   Scattered Clouds
12:33 PM 49.5 °F - 19.2 °F 30% 30.17 in 10.0 mi NW 26.5 mph 39.1 mph N/A   Scattered Clouds
12:54 PM 50.4 °F - 19.6 °F 30% 30.16 in 10.0 mi NNW 28.8 mph 36.8 mph N/A   Clear
1:14 PM 50.5 °F - 19.4 °F 29% 30.16 in 10.0 mi NW 29.9 mph 36.8 mph N/A   Clear
1:34 PM 51.6 °F - 21.7 °F 31% 30.16 in 10.0 mi NW 25.3 mph 36.8 mph N/A   Scattered Clouds
1:54 PM 51.6 °F - 20.8 °F 30% 30.17 in 10.0 mi NW 27.6 mph 40.3 mph N/A   Clear
2:13 PM 51.1 °F - 21.7 °F 32% 30.17 in 10.0 mi NW 26.5 mph 36.8 mph N/A   Clear
2:34 PM 52.0 °F - 22.6 °F 32% 30.17 in 10.0 mi NW 26.5 mph 38.0 mph N/A   Scattered Clouds
2:54 PM 51.6 °F - 22.8 °F 32% 30.17 in 10.0 mi NW 26.5 mph 36.8 mph N/A   Scattered Clouds
3:13 PM 52.9 °F - 22.6 °F 31% 30.16 in 10.0 mi NW 25.3 mph 36.8 mph N/A   Scattered Clouds
3:34 PM 51.3 °F - 22.1 °F 32% 30.17 in 10.0 mi NW 27.6 mph 34.5 mph N/A   Scattered Clouds
3:54 PM 50.7 °F - 21.9 °F 32% 30.17 in 10.0 mi NNW 21.9 mph 35.7 mph N/A   Scattered Clouds
4:13 PM 51.1 °F - 21.4 °F 31% 30.16 in 10.0 mi NW 24.2 mph 38.0 mph N/A   Scattered Clouds
4:32 PM 52.3 °F - 22.3 °F 31% 30.16 in 10.0 mi NW 24.2 mph 33.4 mph N/A   Scattered Clouds
4:53 PM 52.5 °F - 21.4 °F 30% 30.15 in 10.0 mi WNW 26.5 mph 33.4 mph N/A   Scattered Clouds
5:12 PM 52.0 °F - 21.0 °F 30% 30.15 in 10.0 mi NW 26.5 mph 32.2 mph N/A   Scattered Clouds
5:34 PM 52.2 °F - 20.7 °F 29% 30.16 in 10.0 mi NW 23.0 mph 34.5 mph N/A   Clear
5:54 PM 52.9 °F - 21.9 °F 30% 30.16 in 10.0 mi NW 19.6 mph 31.1 mph N/A   Scattered Clouds
6:14 PM 52.2 °F - 20.7 °F 29% 30.16 in 10.0 mi NW 27.6 mph 36.8 mph N/A   Clear
6:34 PM 51.4 °F - 21.0 °F 30% 30.17 in 10.0 mi NW 21.9 mph 36.8 mph N/A   Clear
6:54 PM 50.9 °F - 21.9 °F 32% 30.16 in 10.0 mi NW 26.5 mph 34.5 mph N/A   Clear
7:13 PM 50.2 °F - 20.8 °F 32% 30.16 in 10.0 mi NNW 23.0 mph 34.5 mph N/A   Clear
7:34 PM 49.6 °F - 21.2 °F 33% 30.17 in 10.0 mi NNW 18.4 mph 27.6 mph N/A   Clear
7:54 PM 48.9 °F - 20.7 °F 33% 30.17 in 10.0 mi NW 23.0 mph 29.9 mph N/A   Clear
8:14 PM 48.2 °F - 20.5 °F 33% 30.17 in 10.0 mi NW 18.4 mph 25.3 mph N/A   Clear
8:34 PM 47.3 °F - 20.7 °F 35% 30.17 in 10.0 mi NW 13.8 mph 23.0 mph N/A   Clear
8:54 PM 46.0 °F 40.6 °F 21.0 °F 37% 30.18 in 10.0 mi NW 11.5 mph 16.1 mph N/A   Clear
9:14 PM 45.3 °F 39.7 °F 20.8 °F 38% 30.18 in 10.0 mi NW 11.5 mph - N/A   Clear
9:34 PM 44.6 °F 39.2 °F 21.0 °F 39% 30.19 in 10.0 mi NW 10.4 mph - N/A   Clear
9:54 PM 43.2 °F 37.9 °F 21.2 °F 42% 30.19 in 10.0 mi NW 9.2 mph - N/A   Clear
10:14 PM 42.8 °F 37.5 °F 21.2 °F 42% 30.20 in 10.0 mi WNW 9.2 mph - N/A   Clear
10:34 PM 42.4 °F 38.1 °F 21.6 °F 44% 30.20 in 10.0 mi NW 6.9 mph - N/A   Clear
10:53 PM 41.0 °F 36.4 °F 21.9 °F 47% 30.20 in 10.0 mi NW 6.9 mph - N/A   Clear
11:13 PM 41.0 °F 36.4 °F 22.1 °F 47% 30.20 in 10.0 mi WNW 6.9 mph - N/A   Clear
11:33 PM 40.5 °F 35.1 °F 22.1 °F 48% 30.20 in 10.0 mi WNW 8.1 mph - N/A   Clear
11:54 PM 40.3 °F 34.9 °F 22.1 °F 48% 30.21 in 10.0 mi WNW 8.1 mph - N/A   Clear